Voltar ao catálogo

STARLINK-11298

AtivoComunicaçõesVLEO
NORAD 61211·PAYLOAD·🇺🇸 United States

Lançado Sep 20, 2024 de Vandenberg Space Force Base

Loading…

Próximas Passagens (próximas 24 horas)

TLE

AtualizadoSource: CelesTrak SupGP

Época: Sep 15, 2026, 03:36 UTC

1 61211C 24171M   26258.15048611  .00056044  00000+0  46153-3 0  2583
2 61211  53.1563 322.5853 0001266  83.4489 203.1606 15.69687584    13

Acompanhe STARLINK-11298 em tempo real com AllMySat

Download on the App Store